| time (UTC) | temp F | wind direction | speed MPH | gust MPH | rain 1hr in | rain 24hr in | rain mn in | humidity % | barometer mb |
| 20260505003719 | 69 | 178 | 4.0 | 7.0 | 0.00 | 0.00 | 0.00 | 62 | 1014.6 |
| 20260505003217 | 70 | 175 | 6.0 | 7.0 | 0.00 | 0.00 | 0.00 | 59 | 1014.4 |
| 20260505002712 | 70 | 165 | 3.0 | 6.0 | 0.00 | 0.00 | 0.00 | 58 | 1014.5 |
| 20260505002210 | 69 | 181 | 4.0 | 4.0 | 0.00 | 0.00 | 0.00 | 61 | 1014.5 |
| 20260505001708 | 70 | 176 | 3.0 | 3.0 | 0.00 | 0.00 | 0.00 | 60 | 1014.5 |
| 20260505001205 | 71 | 184 | 3.0 | 4.0 | 0.00 | 0.00 | 0.00 | 57 | 1014.4 |
| 20260505000702 | 71 | 173 | 2.0 | 4.0 | 0.00 | 0.00 | 0.00 | 56 | 1014.4 |
| 20260505000200 | 71 | 184 | 4.0 | 4.0 | 0.00 | 0.00 | 0.00 | 53 | 1014.6 |
| 20260504235656 | 72 | 185 | 4.0 | 6.0 | 0.00 | 0.00 | 0.00 | 52 | 1014.4 |
| 20260504235152 | 72 | 162 | 7.0 | 9.0 | 0.00 | 0.00 | 0.00 | 49 | 1014.6 |
| 20260504234650 | 73 | 186 | 6.0 | 8.0 | 0.00 | 0.00 | 0.00 | 48 | 1014.3 |
| 20260504234147 | 73 | 183 | 6.0 | 8.0 | 0.00 | 0.00 | 0.00 | 45 | 1014.3 |
| 20260504233642 | 74 | 189 | 7.0 | 8.0 | 0.00 | 0.00 | 0.00 | 43 | 1014.5 |
| 20260504233138 | 74 | 193 | 6.0 | 9.0 | 0.00 | 0.00 | 0.00 | 43 | 1014.5 |
| 20260504232637 | 74 | 204 | 5.0 | 7.0 | 0.00 | 0.00 | 0.00 | 44 | 1014.9 |
| 20260504232133 | 74 | 199 | 7.0 | 9.0 | 0.00 | 0.00 | 0.00 | 42 | 1014.8 |
| 20260504231630 | 75 | 184 | 8.0 | 11.0 | 0.00 | 0.00 | 0.00 | 42 | 1014.8 |
| 20260504231126 | 75 | 173 | 7.0 | 10.0 | 0.00 | 0.00 | 0.00 | 42 | 1014.8 |
| 20260504230622 | 75 | 140 | 7.0 | 10.0 | 0.00 | 0.00 | 0.00 | 42 | 1014.7 |
| 20260504230121 | 75 | 204 | 8.0 | 9.0 | 0.00 | 0.00 | 0.00 | 43 | 1014.8 |
| 20260504225619 | 75 | 175 | 7.0 | 8.0 | 0.00 | 0.00 | 0.00 | 42 | 1014.7 |
| 20260504225115 | 75 | 174 | 5.0 | 8.0 | 0.00 | 0.00 | 0.00 | 44 | 1014.9 |
| 20260504224612 | 76 | 171 | 8.0 | 13.0 | 0.00 | 0.00 | 0.00 | 40 | 1014.9 |
| 20260504224109 | 76 | 187 | 7.0 | 9.0 | 0.00 | 0.00 | 0.00 | 42 | 1014.8 |
| 20260504223606 | 76 | 186 | 7.0 | 10.0 | 0.00 | 0.00 | 0.00 | 41 | 1015.0 |
| 20260504223101 | 76 | 180 | 7.0 | 11.0 | 0.00 | 0.00 | 0.00 | 40 | 1015.2 |
| 20260504222559 | 76 | 180 | 8.0 | 9.0 | 0.00 | 0.00 | 0.00 | 42 | 1015.1 |
| 20260504222056 | 76 | 160 | 7.0 | 10.0 | 0.00 | 0.00 | 0.00 | 40 | 1015.2 |
| 20260504221553 | 76 | 153 | 8.0 | 13.0 | 0.00 | 0.00 | 0.00 | 41 | 1015.0 |
| 20260504221050 | 76 | 172 | 8.0 | 11.0 | 0.00 | 0.00 | 0.00 | 42 | 1015.3 |
| 20260504220546 | 76 | 176 | 8.0 | 9.0 | 0.00 | 0.00 | 0.00 | 40 | 1015.3 |
| 20260504220043 | 77 | 196 | 7.0 | 13.0 | 0.00 | 0.00 | 0.00 | 42 | 1015.3 |
| 20260504215539 | 76 | 161 | 10.0 | 13.0 | 0.00 | 0.00 | 0.00 | 41 | 1015.4 |
| 20260504215037 | 77 | 193 | 6.0 | 11.0 | 0.00 | 0.00 | 0.00 | 43 | 1015.4 |
| 20260504214533 | 76 | 241 | 8.0 | 11.0 | 0.00 | 0.00 | 0.00 | 40 | 1015.3 |
| 20260504214030 | 77 | 200 | 9.0 | 11.0 | 0.00 | 0.00 | 0.00 | 43 | 1015.4 |
| 20260504213526 | 77 | 189 | 7.0 | 10.0 | 0.00 | 0.00 | 0.00 | 44 | 1015.3 |
| 20260504213024 | 77 | 183 | 11.0 | 14.0 | 0.00 | 0.00 | 0.00 | 43 | 1015.4 |
| 20260504212519 | 77 | 192 | 9.0 | 10.0 | 0.00 | 0.00 | 0.00 | 40 | 1015.5 |
| 20260504212017 | 78 | 186 | 5.0 | 7.0 | 0.00 | 0.00 | 0.00 | 41 | 1015.8 |
| 20260504211513 | 77 | 191 | 4.0 | 7.0 | 0.00 | 0.00 | 0.00 | 42 | 1015.5 |
| 20260504211011 | 77 | 175 | 6.0 | 11.0 | 0.00 | 0.00 | 0.00 | 40 | 1015.7 |
| 20260504210508 | 77 | 174 | 9.0 | 16.0 | 0.00 | 0.00 | 0.00 | 43 | 1015.7 |
| 20260504210004 | 77 | 188 | 5.0 | 13.0 | 0.00 | 0.00 | 0.00 | 42 | 1015.7 |
| 20260504205502 | 77 | 149 | 4.0 | 4.0 | 0.00 | 0.00 | 0.00 | 44 | 1015.6 |
| 20260504205000 | 77 | 187 | 4.0 | 9.0 | 0.00 | 0.00 | 0.00 | 43 | 1015.6 |
| 20260504204458 | 77 | 174 | 6.0 | 9.0 | 0.00 | 0.00 | 0.00 | 46 | 1015.8 |
| 20260504203957 | 77 | 168 | 4.0 | 8.0 | 0.00 | 0.00 | 0.00 | 44 | 1016.0 |
| 20260504203454 | 77 | 189 | 3.0 | 9.0 | 0.00 | 0.00 | 0.00 | 44 | 1016.0 |
| 20260504202950 | 77 | 153 | 12.0 | 15.0 | 0.00 | 0.00 | 0.00 | 43 | 1016.0 |
| 20260504202447 | 77 | 169 | 7.0 | 13.0 | 0.00 | 0.00 | 0.00 | 41 | 1016.0 |
| 20260504201943 | 77 | 184 | 9.0 | 14.0 | 0.00 | 0.00 | 0.00 | 46 | 1016.3 |
| 20260504201441 | 77 | 210 | 8.0 | 13.0 | 0.00 | 0.00 | 0.00 | 45 | 1016.3 |
| 20260504200938 | 77 | 190 | 8.0 | 10.0 | 0.00 | 0.00 | 0.00 | 43 | 1016.4 |
| 20260504200435 | 77 | 157 | 5.0 | 10.0 | 0.00 | 0.00 | 0.00 | 43 | 1016.6 |
| 20260504195931 | 77 | 184 | 3.0 | 7.0 | 0.00 | 0.00 | 0.00 | 46 | 1016.5 |
| 20260504195427 | 77 | 178 | 9.0 | 13.0 | 0.00 | 0.00 | 0.00 | 47 | 1016.7 |
| 20260504194924 | 77 | 204 | 1.0 | 3.0 | 0.00 | 0.00 | 0.00 | 44 | 1016.8 |
| 20260504194420 | 78 | 193 | 9.0 | 17.0 | 0.00 | 0.00 | 0.00 | 41 | 1016.9 |
| 20260504193916 | 78 | 233 | 6.0 | 7.0 | 0.00 | 0.00 | 0.00 | 45 | 1017.1 |
| 20260504193414 | 77 | 199 | 9.0 | 11.0 | 0.00 | 0.00 | 0.00 | 46 | 1017.2 |
| 20260504192912 | 77 | 158 | 5.0 | 8.0 | 0.00 | 0.00 | 0.00 | 47 | 1017.2 |
| 20260504192409 | 77 | 163 | 2.0 | 3.0 | 0.00 | 0.00 | 0.00 | 47 | 1017.2 |
| 20260504191908 | 77 | 207 | 4.0 | 6.0 | 0.00 | 0.00 | 0.00 | 48 | 1017.1 |
| 20260504191405 | 78 | 210 | 3.0 | 7.0 | 0.00 | 0.00 | 0.00 | 42 | 1017.3 |
| 20260504190900 | 77 | 167 | 7.0 | 10.0 | 0.00 | 0.00 | 0.00 | 43 | 1017.5 |
| 20260504190356 | 77 | 185 | 9.0 | 14.0 | 0.00 | 0.00 | 0.00 | 45 | 1017.4 |
| 20260504185853 | 77 | 215 | 6.0 | 11.0 | 0.00 | 0.00 | 0.00 | 43 | 1017.2 |
| 20260504185350 | 77 | 163 | 4.0 | 7.0 | 0.00 | 0.00 | 0.00 | 42 | 1017.3 |
| 20260504184846 | 76 | 177 | 2.0 | 7.0 | 0.00 | 0.00 | 0.00 | 46 | 1017.4 |
| 20260504184342 | 77 | 169 | 12.0 | 14.0 | 0.00 | 0.00 | 0.00 | 43 | 1017.6 |
| 20260504183838 | 77 | 149 | 2.0 | 9.0 | 0.00 | 0.00 | 0.00 | 45 | 1017.6 |
| 20260504183336 | 76 | 136 | 7.0 | 10.0 | 0.00 | 0.00 | 0.00 | 43 | 1017.7 |
| 20260504182833 | 76 | 90 | 5.0 | 11.0 | 0.00 | 0.00 | 0.00 | 45 | 1017.7 |
| 20260504182331 | 76 | 146 | 7.0 | 10.0 | 0.00 | 0.00 | 0.00 | 46 | 1017.8 |
| 20260504181828 | 76 | 182 | 9.0 | 10.0 | 0.00 | 0.00 | 0.00 | 46 | 1017.8 |
| 20260504181325 | 76 | 161 | 6.0 | 9.0 | 0.00 | 0.00 | 0.00 | 47 | 1017.9 |
| 20260504180824 | 76 | 196 | 7.0 | 11.0 | 0.00 | 0.00 | 0.00 | 43 | 1018.1 |
| 20260504180322 | 76 | 182 | 2.0 | 6.0 | 0.00 | 0.00 | 0.00 | 45 | 1018.1 |
| 20260504175820 | 76 | 156 | 6.0 | 10.0 | 0.00 | 0.00 | 0.00 | 46 | 1018.0 |
| 20260504175316 | 76 | 175 | 2.0 | 9.0 | 0.00 | 0.00 | 0.00 | 44 | 1017.9 |
| 20260504174815 | 77 | 184 | 8.0 | 10.0 | 0.00 | 0.00 | 0.00 | 41 | 1018.1 |
| 20260504174312 | 77 | 179 | 5.0 | 13.0 | 0.00 | 0.00 | 0.00 | 44 | 1018.1 |
| 20260504173808 | 77 | 216 | 2.0 | 4.0 | 0.00 | 0.00 | 0.00 | 43 | 1018.2 |
| 20260504173305 | 77 | 165 | 5.0 | 6.0 | 0.00 | 0.00 | 0.00 | 45 | 1018.1 |
| 20260504172802 | 76 | 174 | 6.0 | 11.0 | 0.00 | 0.00 | 0.00 | 42 | 1018.2 |
| 20260504172259 | 75 | 182 | 7.0 | 13.0 | 0.00 | 0.00 | 0.00 | 43 | 1018.3 |
| 20260504171754 | 75 | 167 | 6.0 | 13.0 | 0.00 | 0.00 | 0.00 | 44 | 1018.2 |
| 20260504171252 | 75 | 176 | 11.0 | 15.0 | 0.00 | 0.00 | 0.00 | 41 | 1018.3 |
| 20260504170749 | 75 | 178 | 6.0 | 10.0 | 0.00 | 0.00 | 0.00 | 44 | 1018.0 |
| 20260504170246 | 75 | 202 | 11.0 | 14.0 | 0.00 | 0.00 | 0.00 | 44 | 1018.1 |
| 20260504160204 | 75 | 178 | 8.0 | 9.0 | 0.00 | 0.00 | 0.00 | 43 | 1018.7 |
| 20260504151132 | 74 | 179 | 8.0 | 10.0 | 0.00 | 0.00 | 0.00 | 49 | 1018.9 |
| 20260504150630 | 73 | 200 | 6.0 | 10.0 | 0.00 | 0.00 | 0.00 | 46 | 1018.9 |
| 20260504150126 | 73 | 140 | 4.0 | 8.0 | 0.00 | 0.00 | 0.00 | 47 | 1018.9 |
| 20260504141055 | 70 | 64 | 2.0 | 3.0 | 0.00 | 0.00 | 0.00 | 66 | 1019.1 |
| 20260504140551 | 69 | 63 | 0.0 | 3.0 | 0.00 | 0.00 | 0.00 | 68 | 1019.3 |
| 20260504130516 | 67 | 62 | 0.0 | 0.0 | 0.00 | 0.00 | 0.00 | 72 | 1019.1 |
| 20260504110403 | 53 | 151 | 0.0 | 0.0 | 0.00 | 0.00 | 0.00 | 96 | 1018.1 |
| 20260504100320 | 53 | 151 | 0.0 | 0.0 | 0.00 | 0.00 | 0.00 | 95 | 1018.3 |
| 20260504081714 | 55 | 166 | 0.0 | 0.0 | 0.00 | 0.00 | 0.00 | 89 | 1018.5 |
| 20260504081210 | 55 | 166 | 0.0 | 0.0 | 0.00 | 0.00 | 0.00 | 90 | 1018.1 |
| 20260504080707 | 55 | 166 | 1.0 | 2.0 | 0.00 | 0.00 | 0.00 | 90 | 1018.3 |
| 20260504080203 | 55 | 167 | 2.0 | 3.0 | 0.00 | 0.00 | 0.00 | 88 | 1018.4 |
| 20260504070131 | 55 | 151 | 0.0 | 0.0 | 0.00 | 0.00 | 0.00 | 89 | 1019.0 |
| 20260504050520 | 58 | 159 | 0.0 | 1.0 | 0.00 | 0.00 | 0.00 | 84 | 1019.6 |
| 20260504050016 | 58 | 157 | 2.0 | 3.0 | 0.00 | 0.00 | 0.00 | 82 | 1019.9 |
| 20260504045513 | 57 | 150 | 0.0 | 0.0 | 0.00 | 0.00 | 0.00 | 84 | 1019.7 |
| 20260504045009 | 58 | 150 | 0.0 | 0.0 | 0.00 | 0.00 | 0.00 | 82 | 1020.0 |
| 20260504044506 | 58 | 150 | 0.0 | 0.0 | 0.00 | 0.00 | 0.00 | 82 | 1019.8 |
| 20260504044003 | 58 | 150 | 0.0 | 0.0 | 0.00 | 0.00 | 0.00 | 81 | 1020.0 |
| 20260504043500 | 58 | 150 | 0.0 | 0.0 | 0.00 | 0.00 | 0.00 | 80 | 1020.1 |
| 20260504042958 | 58 | 150 | 0.0 | 0.0 | 0.00 | 0.00 | 0.00 | 81 | 1020.1 |
| 20260504042454 | 58 | 152 | 0.0 | 0.0 | 0.00 | 0.00 | 0.00 | 82 | 1020.1 |
| 20260504041951 | 58 | 149 | 0.0 | 0.0 | 0.00 | 0.00 | 0.00 | 82 | 1020.0 |
| 20260504041447 | 58 | 149 | 0.0 | 0.0 | 0.00 | 0.00 | 0.00 | 83 | 1020.2 |
| 20260504040943 | 58 | 152 | 0.0 | 0.0 | 0.00 | 0.00 | 0.00 | 81 | 1020.0 |
| 20260504040441 | 59 | 151 | 0.0 | 0.0 | 0.00 | 0.00 | 0.00 | 81 | 1020.2 |
| 20260504035937 | 59 | 151 | 0.0 | 0.0 | 0.00 | 0.00 | 0.00 | 80 | 1020.2 |
| 20260504035435 | 59 | 144 | 0.0 | 0.0 | 0.00 | 0.00 | 0.00 | 80 | 1020.1 |
| 20260504034931 | 59 | 149 | 0.0 | 1.0 | 0.00 | 0.00 | 0.00 | 80 | 1020.0 |
| 20260504034428 | 58 | 152 | 1.0 | 2.0 | 0.00 | 0.00 | 0.00 | 80 | 1020.1 |
| 20260504033925 | 57 | 149 | 0.0 | 0.0 | 0.00 | 0.00 | 0.00 | 83 | 1020.1 |
| 20260504033423 | 58 | 144 | 0.0 | 0.0 | 0.00 | 0.00 | 0.00 | 81 | 1020.1 |
| 20260504032920 | 59 | 149 | 0.0 | 0.0 | 0.00 | 0.00 | 0.00 | 80 | 1020.3 |
| 20260504032417 | 59 | 144 | 0.0 | 0.0 | 0.00 | 0.00 | 0.00 | 79 | 1020.2 |
| 20260504031913 | 60 | 144 | 0.0 | 0.0 | 0.00 | 0.00 | 0.00 | 78 | 1020.3 |
| 20260504031411 | 60 | 149 | 0.0 | 0.0 | 0.00 | 0.00 | 0.00 | 77 | 1020.3 |
| 20260504030907 | 61 | 144 | 0.0 | 0.0 | 0.00 | 0.00 | 0.00 | 78 | 1020.2 |
| 20260504030404 | 61 | 149 | 1.0 | 1.0 | 0.00 | 0.00 | 0.00 | 78 | 1020.3 |
| 20260504025900 | 60 | 161 | 2.0 | 2.0 | 0.00 | 0.00 | 0.00 | 79 | 1020.3 |
| 20260504025357 | 60 | 168 | 0.0 | 0.0 | 0.00 | 0.00 | 0.00 | 82 | 1020.3 |
| 20260504024854 | 60 | 169 | 0.0 | 0.0 | 0.00 | 0.00 | 0.00 | 83 | 1020.2 |
| 20260504024350 | 60 | 169 | 0.0 | 0.0 | 0.00 | 0.00 | 0.00 | 80 | 1020.2 |
| 20260504023848 | 61 | 169 | 0.0 | 0.0 | 0.00 | 0.00 | 0.00 | 78 | 1020.2 |
| 20260504023344 | 61 | 169 | 0.0 | 0.0 | 0.00 | 0.00 | 0.00 | 75 | 1019.8 |
| 20260504022839 | 61 | 169 | 0.0 | 0.0 | 0.00 | 0.00 | 0.00 | 73 | 1019.8 |
| 20260504022337 | 62 | 169 | 0.0 | 0.0 | 0.00 | 0.00 | 0.00 | 72 | 1019.8 |
| 20260504021833 | 62 | 169 | 0.0 | 0.0 | 0.00 | 0.00 | 0.00 | 72 | 1019.6 |
| 20260504021331 | 62 | 169 | 0.0 | 0.0 | 0.00 | 0.00 | 0.00 | 74 | 1019.6 |
| 20260504020828 | 62 | 169 | 0.0 | 0.0 | 0.00 | 0.00 | 0.00 | 73 | 1019.7 |
| 20260504020324 | 62 | 169 | 0.0 | 0.0 | 0.00 | 0.00 | 0.00 | 73 | 1019.8 |
| 20260504015820 | 62 | 169 | 0.0 | 0.0 | 0.00 | 0.00 | 0.00 | 76 | 1019.5 |
| 20260504015317 | 62 | 169 | 0.0 | 0.0 | 0.00 | 0.00 | 0.00 | 74 | 1019.4 |
| 20260504014813 | 62 | 169 | 0.0 | 0.0 | 0.00 | 0.00 | 0.00 | 72 | 1019.5 |
| 20260504014309 | 61 | 169 | 0.0 | 0.0 | 0.00 | 0.00 | 0.00 | 73 | 1019.2 |
| 20260504013807 | 62 | 169 | 0.0 | 0.0 | 0.00 | 0.00 | 0.00 | 73 | 1019.3 |
| 20260504013305 | 63 | 169 | 0.0 | 0.0 | 0.00 | 0.00 | 0.00 | 70 | 1019.5 |
| 20260504012801 | 63 | 169 | 0.0 | 0.0 | 0.00 | 0.00 | 0.00 | 68 | 1019.2 |
| 20260504012259 | 64 | 169 | 1.0 | 2.0 | 0.00 | 0.00 | 0.00 | 72 | 1019.2 |
| 20260504011755 | 64 | 169 | 1.0 | 1.0 | 0.00 | 0.00 | 0.00 | 74 | 1019.2 |
| 20260504011252 | 64 | 169 | 0.0 | 0.0 | 0.00 | 0.00 | 0.00 | 75 | 1019.1 |
| 20260504010748 | 65 | 170 | 0.0 | 0.0 | 0.00 | 0.00 | 0.00 | 74 | 1019.0 |
| 20260504010244 | 65 | 170 | 0.0 | 0.0 | 0.00 | 0.00 | 0.00 | 70 | 1019.2 |
| 20260504005741 | 65 | 170 | 0.0 | 0.0 | 0.00 | 0.00 | 0.00 | 67 | 1019.1 |
| 20260504005238 | 65 | 170 | 0.0 | 0.0 | 0.00 | 0.00 | 0.00 | 64 | 1019.0 |
| 20260504004736 | 66 | 170 | 0.0 | 0.0 | 0.00 | 0.00 | 0.00 | 61 | 1018.9 |
| 20260504004232 | 67 | 170 | 0.0 | 0.0 | 0.00 | 0.00 | 0.00 | 58 | 1018.9 |